Regional Weather Roundup
Issued by NWS

Home | Current Version | Previous Version | Graphics & Text | Print | Product List | Glossary On
Versions: 1 2 3 4 5 6 7 8 9 10 11 12 13 14 15 16 17 18 19 20 21 22 23 24 25 26 27 28 29 30 31 32 33 34 35 36 37 38 39 40 41 42 43 44 45 46 47 48 49 50
000
ASUS43 KMPX 191810
RWRMN
WEATHER ROUNDUP FOR MINNESOTA
NATIONAL WEATHER SERVICE TWIN CITIES/CHANHASSEN MN
100 PM CDT SAT MAY 19 2018


NOTE: "FAIR" INDICATES FEW OR NO CLOUDS BELOW 12,000 FEET WITH NO
SIGNIFICANT WEATHER AND/OR OBSTRUCTIONS TO VISIBILITY. N/A MEANS
CURRENT SKY AND/OR WEATHER CONDITIONS ARE NOT AVAILABLE.

MNZ060>063-068>070-191900-
   Twin Cities Metro

CITY           SKY/WX    TMP DP  RH WIND       PRES   REMARKS
TWIN CITIES    CLOUDY    63  55  75 N14       29.94R
6HR MIN TEMP:  57; 6HR MAX TEMP:  63;

ST PAUL        CLOUDY    61  52  72 N14       29.94R
CRYSTAL        CLOUDY    59  50  72 N12G20    29.94R
BLAINE         CLOUDY    61  52  72 N13G21    29.95R
LAKEVILLE      CLOUDY    57  54  88 NW8       29.93S
EDEN PRAIRIE   CLOUDY    60  52  74 N13       29.93S
6HR MIN TEMP:  54; 6HR MAX TEMP:  60;

SOUTH ST PAUL  FAIR      62  53  71 N10       29.93S
LAKE ELMO      CLOUDY    61  54  77 N9        29.94R
$$
MNZ001>005-007-008-013>017-022>024-027-028-191900-
   Northwest Minnesota

CITY           SKY/WX    TMP DP  RH WIND       PRES   REMARKS
BEMIDJI        FAIR      56  39  52 N17       30.13S
HALLOCK        FAIR      63  36  36 N12G18    30.21F
ROSEAU         FAIR      61  43  51 NE17G24   30.20S
WARROAD        FAIR      52  43  71 NE10      30.22S
THIEF RVR FALL FAIR      58  31  35 NE25G33   30.19F
CROOKSTON      FAIR      61  34  36 NE16G26   30.19S
FOSSTON        FAIR      57  36  44 NE15G26   30.16R
DETROIT LAKES  FAIR      59  32  36 NE16G25   30.12R
MOORHEAD       FAIR      63  36  36 NE20G31   30.14S
PARK RAPIDS    FAIR      56  39  53 NE15G35   30.08S
MAHNOMEN       FAIR      57  36  44 NE32G40   30.12F
$$
MNZ006-009>011-018-025>026-191900-
   North Central Minnesota

CITY           SKY/WX    TMP DP  RH WIND       PRES   REMARKS
BAUDETTE       FAIR      57  38  48 N18G26    30.18F
FLAG ISLAND    FAIR      54  36  50 NE10      30.20F
INTL FALLS     FAIR      51  40  65 NE17G28   30.16R
6HR MIN TEMP:  42; 6HR MAX TEMP:  52;

WASKISH        CLOUDY    57  39  51 N15G23    30.15S
BIG FORK       FAIR      54  43  66 N10G20    30.12S
LONGVILLE      PTSUNNY   52  41  66 NE10G20   30.10R
GRAND RAPIDS   CLOUDY    50  41  71 N16       30.10S
CRANE LAKE     CLOUDY    46  41  81 N9G16     30.15S
ORR            CLOUDY    48  39  71 NW3       30.10S
COOK           CLOUDY    48  41  76 N8G20     30.11S
WALKER         FAIR      54  40  59 N15G26    30.10S
$$
MNZ012-019>021-037-191900-
   Northeast Minnesota

CITY           SKY/WX    TMP DP  RH WIND       PRES   REMARKS
DULUTH         CLOUDY    50  42  74 NW17      30.03R
6HR MIN TEMP:  49; 6HR MAX TEMP:  54;

ELY            CLOUDY    45  39  81 N8G17     30.09R
HIBBING        CLOUDY    47  41  80 N17G23    30.08R
EVELETH        CLOUDY    46  41  81 NE13G22   30.09R
DULUTH HARBOR  CLOUDY    50  45  81 NE18      30.04R
TWO HARBORS    CLOUDY    55  45  67 N12G20    30.03R
SILVER BAY     PTSUNNY   52  43  71 N8G17     30.03R
GRAND MARAIS     N/A     50  40  68 MISG      30.04R
G MARAIS ARPRT CLOUDY    41  36  81 N25G33    30.02R
$$
MNZ029>031-032-039>041-046>048-054>057-064-191900-
   West Central Minnesota

CITY           SKY/WX    TMP DP  RH WIND       PRES   REMARKS
FERGUS FALLS   FAIR      61  39  44 NE16G24   30.04F
WHEATON        SUNNY     63  39  42 N20G29    30.08F
MORRIS         MOSUNNY   61  45  55 NE18G30   30.04R
ALEXANDRIA     FAIR      60  43  53 NE20G33   30.05S
ELBOW LAKE     FAIR      56  42  59 E17G25    30.07R
WADENA         FAIR      55  43  62 N16G22    30.07F
GLENWOOD       FAIR      59  46  63 N16G29    30.03S
APPLETON       PTSUNNY   63  45  51 N17G25    30.03R
BENSON         MOSUNNY   63  46  55 NE14G20   30.04R
ORTONVILLE     PTSUNNY   61  46  59 N21G32    30.04S
MADISON        CLOUDY    61  48  63 N23G29    30.04S
WILLMAR        CLOUDY    55  46  71 N16       30.03S
$$
MNZ033>034-036-042>043-049>051-058-059-191900-
   Central Minnesota

CITY           SKY/WX    TMP DP  RH WIND       PRES   REMARKS
ST CLOUD       CLOUDY    55  45  68 NE14G25   30.00R
6HR MIN TEMP:  51; 6HR MAX TEMP:  56;

SAUK CENTRE    CLOUDY    55  44  66 N20       30.03R
PAYNESVILLE    CLOUDY    56  47  72 N18G26    30.02S
AITKIN         CLOUDY    48  41  76 N18G25    30.04S
PINE RIVER     PTSUNNY   52  39  62 N20       30.11R
BRAINERD       CLOUDY    53  41  63 N20G28    30.07R
STAPLES        FAIR      55  39  54 N14G24    30.06S
LONG PRAIRIE   CLOUDY    54  43  66 N16G29    30.05R
LITTLE FALLS   CLOUDY    52  43  71 N7G20     30.04S
LITCHFIELD     CLOUDY    57  48  72 N15G21    30.00R
BUFFALO        CLOUDY    56  46  69 N12G17    29.99S
MAPLE LAKE     CLOUDY    56  48  73 N16G22    30.00S
HUTCHINSON     CLOUDY    58  48  70 N18G24    29.99R
$$
MNZ037-044-045-052-053-191900-
   East Central Minnesota

CITY           SKY/WX    TMP DP  RH WIND       PRES   REMARKS
PRINCETON      CLOUDY    57  48  72 N14G23    30.00R
MORA           PTSUNNY   54  43  66 N10G21    30.03R
CAMBRIDGE      CLOUDY    57  45  62 N9        29.99R
RUSH CITY      CLOUDY    55  47  74 N10G23    29.99R
MOOSE LAKE     CLOUDY    52  43  71 N14G25    30.02R
HINCKLEY       CLOUDY    54  46  76 N15G21    30.01R
CLOQUET        CLOUDY    52  43  71 N15G23    30.03R
MCGREGOR       CLOUDY    50  43  76 N17G24    30.05S
$$
MNZ071>073-080-081-089-090-097-098-191900-
   Southwest Minnesota

CITY           SKY/WX    TMP DP  RH WIND       PRES   REMARKS
MONTEVIDEO     CLOUDY    57  46  67 E13G20    30.03S
GRANITE FALLS  CLOUDY    56  48  73 N12G21    30.03F
CANBY          CLOUDY    54  46  75 N10G17    30.05F
MARSHALL       CLOUDY    54  46  76 N18       30.02S
REDWOOD FALLS  CLOUDY    56  47  71 N15       29.99S
OLIVIA         CLOUDY    55  46  71 N18       29.99S
PIPESTONE      CLOUDY    52  46  82 NE20G25   30.01R
WINDOM         CLOUDY    59  39  47 N22       29.96S
WORTHINGTON    CLOUDY    58  48  69 N20G26    29.99R
JACKSON        CLOUDY    57  46  67 VRB12G22  29.98R
TRACY          CLOUDY    55  49  79 N21G26    30.00F
SLAYTON        CLOUDY    55  47  77 N21G30    30.00R
$$
MNZ065>067-074>077-082>085-091>093-191900-
   South Central Minnesota

CITY           SKY/WX    TMP DP  RH WIND       PRES   REMARKS
MANKATO        CLOUDY    57  52  83 N10       29.95S
NEW ULM        CLOUDY    57  48  72 N12G21    29.96F
ST JAMES       CLOUDY    57  48  72 NW16G23   29.98R
FAIRMONT       CLOUDY    58  49  72 N14       29.97R
GLENCOE        CLOUDY    59  50  72 N14       29.96S
FARIBAULT      CLOUDY    61  54  77 CALM      29.94R
OWATONNA       FAIR      61  54  77 NW9       29.93F
WASECA         CLOUDY    59  50  72 N9        29.95S
ALBERT LEA     FAIR      63  48  59 NW7       29.93S
$$
MNZ078>079-086>088-094>096-191900-
   Southeast Minnesota

CITY           SKY/WX    TMP DP  RH WIND       PRES   REMARKS
ROCHESTER      CLOUDY    64  55  72 NW8       29.92S
6HR MIN TEMP:  57; 6HR MAX TEMP:  64;

RED WING       PTSUNNY   66  52  59 NW9       29.90S
STANTON        CLOUDY    62  55  77 W7        29.92S
DODGE CENTER   FAIR      63  54  72 NW9       29.92F
WINONA         CLOUDY    70  59  68 NW7       29.87S
AUSTIN         PTSUNNY   63  54  72 NW8       29.93R
PRESTON        CLOUDY    65  57  74 NW5       29.92S HAZE
$$
ABBREVIATIONS USED IN REMARKS
   TC - TEMPERATURES IN CELSIUS
  WCI - WIND CHILL INDEX
   HX - HEAT INDEX
  VSB - VISIBILITY
$$




USA.gov is the U.S. government's official web portal to all federal, state and local government web resources and services.